Workout of the Day

« September 7, 2022 »

4 x 6 minutes with rate changes. 2 minutes rest between intervals.

4 x 6 minutes of work with two minutes rest between intervals. Each 6 minute interval is split into 3 minutes then 2 minutes then 1 minute at different stroke rates or cadence. RowErg: 3 minutes at 22, 2 minutes at 24, 1 minute at 28. SkiErg: 3 minutes at 33, 2 minutes at 36, 1 minute at 42. BikeErg: 3 minutes at 78, 2 minutes at 82, 1 minute at 90.

Pos. Name Age Country Result Pace
601 Siqi Wang 36 CHN 5,482 2:11.3
601 Jay Lawrence 40 GBR 5,482 2:11.3
603 Walter Rossi 43 ITA 5,479 2:11.4
603 Dave Morgan 49 GBR 5,479 2:11.4
605 Melanie Bell 36 AUS 5,478 2:11.4
606 Dave Pountain 44 USA 5,477 2:11.4
606 [DDANZI] 토끼사랑 46 KOR 5,477 2:11.4
606 Gilles Grün 36 LUX 5,477 2:11.4
606 John Egil Gahrsen 50 NOR 5,477 2:11.4
610 Frank Pavlov 67 USA 5,475 2:11.5
610 Darren Della Maestra 49 GBR 5,475 2:11.5
610 Ian Barnes 53 GBR 5,475 2:11.5
613 Alison Stokes 51 GBR 5,473 2:11.5
614 Glen Vermette 65 USA 5,467 2:11.6
615 James Strong 33 AUS 5,466 2:11.7
616 Kevin McAleese 68 USA 5,465 2:11.7
617 Lance Links 42 USA 5,463 2:11.7
617 Peter Van Eck 39 NED 5,463 2:11.7
619 Tag keun Lee 41 KOR 5,460 2:11.8
620 Ali Albayrak 63 USA 5,459 2:11.8
620 Frankie Tuck 33 GBR 5,459 2:11.8
620 Shawn Lauer 47 USA 5,459 2:11.8
623 Amanda Spencer 52 CAN 5,458 2:11.9
624 Tim Loerke 41 USA 5,455 2:11.9
624 Samantha Krog - RSA 5,455 2:11.9
624 Stefan Tewis 38 GER 5,455 2:11.9
627 PJO Mainiac 50 USA 5,454 2:12.0
628 Rob Jenner 50 GBR 5,453 2:12.0
629 Anders Pedersen 64 DEN 5,451 2:12.0
630 Anders S 51 SUI 5,449 2:12.1
631 Razvan Ionasiu Rebreanu 50 ROU 5,444 2:12.2
631 Andrew Redgment 66 AUS 5,444 2:12.2
633 Adriana Toledo Piza 55 BRA 5,443 2:12.2
634 mark kaslatter 46 AUT 5,441 2:12.3
634 Russell Smith 50 USA 5,441 2:12.3
634 Ingo Schwitzke 46 GER 5,441 2:12.3
634 Felipe Alonso 32 GER 5,441 2:12.3
638 Diana Tuck 37 USA 5,440 2:12.3
639 Randall Lee 37 USA 5,437 2:12.4
639 Eric Pavy 47 FRA 5,437 2:12.4
641 Miles Ward 65 FRA 5,436 2:12.4
641 Jan-Philipp Hellmers - GER 5,436 2:12.4
641 Adam Davies - USA 5,436 2:12.4
644 Ahmad Aizat Bin Rahmat 36 SGP 5,435 2:12.4
644 Milton Walker 48 USA 5,435 2:12.4
646 Steve Leavitt 37 USA 5,434 2:12.4
647 Anthony Steele 54 USA 5,432 2:12.5
648 Travis Holgate - GBR 5,431 2:12.5
648 Thanavan Tantbirojn 49 THA 5,431 2:12.5
648 JessE FosteR 41 USA 5,431 2:12.5